Погода в Старых Юрковичей

Россия / Брянская область     52°09′55″N   31°51′24″E
темп.,
°C
ветер,
м/с
пор.,
м/с
влажн.,
%
обл.,
%
осадки,
мм/ч
давл.,
гПа
погр.,
м
13 июня, вс
вс1300:00+14ю34856 0.0 100850
03:00+13ю349445 0.5 100670
06:00+14ю379399 0.0 1005164
09:00+18ю5881100 0.0 1005535
12:00+20ююз6871100 1.3 10041109
15:00+20ююз5878100 2.9 1005871
18:00+15зюз5788100 0.5 1006456
21:00+12з48894 0.6 1008266
14 июня, пн
пн1400:00+10з36955 0.0 1009137
03:00+10з229548 0.0 101119
06:00+11ю1092100 0.0 101241
09:00+15в1077100 0.0 1013400
12:00+20в126177 0.0 1014851
15:00+22всв125910 0.0 10141177
18:00+22св226223 0.0 10141163
21:00+18ссв33845 0.1 101526
15 июня, вт
вт1500:00+15ссв34920 0.0 101657
03:00+14с34945 0.0 101556
06:00+15с24934 0.2 1016101
09:00+20с34760 0.2 1016495
12:00+23ссз446514 0.0 10141153
15:00+23сз446484 0.6 10131240
18:00+22сз456852 0.4 1012603
21:00+18ссз47860 0.4 1013115
16 июня, ср
ср1600:00+15с39930 0.0 1013162
03:00+13ссз37950 0.0 1013142
06:00+13с399098 0.0 1014206
09:00+19с5774100 0.0 1014533
12:00+22с566292 0.0 10151335
15:00+24ссв56551 0.0 10151858
18:00+21с78740 0.2 1016950
21:00+18с511813 0.2 1017341
17 июня, чт
чт1700:00+16ссв512775 0.0 1019293
03:00+13ссв411795 0.0 1020200
06:00+13ссв412810 0.0 1021259
09:00+18св69700 0.0 1021488
12:00+22всв67560 0.0 10231208
15:00+23всв67530 0.0 10221650
18:00+22св57620 0.0 10231168
21:00+17всв358182 0.0 102364